Regional Weather Roundup
Issued by NWS

Current Version | Previous Version | Text Only | Print | Product List | Glossary On
Versions: 1 2 3 4 5 6 7 8 9 10 11 12 13 14 15 16 17 18 19 20 21 22 23 24 25 26 27 28 29 30 31 32 33 34 35 36 37 38 39 40 41 42 43 44 45 46 47 48 49 50
000
ASUS42 KTBW 021318
RWRFL
FLORIDA REGIONAL WEATHER ROUNDUP
NATIONAL WEATHER SERVICE TAMPA BAY RUSKIN FL
900 AM EDT THU JUL 02 2020

NOTE: "FAIR" INDICATES FEW OR NO CLOUDS BELOW 12,000 FEET WITH NO
SIGNIFICANT WEATHER AND/OR OBSTRUCTIONS TO VISIBILITY.

FLZ001>010-012>015-112-114-115-021400-
PANHANDLE FLORIDA

CITY           SKY/WX    TMP DP  RH WIND       PRES   REMARKS
PENSACOLA      PTSUNNY   78  73  84 N8        29.95F
MILTON NAS     PTSUNNY   78  68  71 N8        29.97S
CRESTVIEW      MOSUNNY   75  70  84 N10       29.98S
DUKE FIELD     FAIR      76  70  83 N9        29.96F
VALPARAISO     SUNNY     78  71  76 NW12      29.94F
MARY ESTHER    PTSUNNY   82  70  66 N13G20    29.93F
PANAMA CITY      N/A     78  71  79 NW5       29.94F
TYNDALL AFB    PTSUNNY   81  74  78 CALM      29.94F
APALACHICOLA   PTSUNNY   80  73  79 N5        29.96S

STATION/POSITION SKY/WX   TEMP    WIND        PRES    WAVE   SWELL
                          AIR SEA DIR/SP/G            HT/PER HT/PER
                          (F)     (DEG/KT/KT) (MB)    (FT/S) (FT/S)
30.1N   87.6W                 85              1014.5F   2/ 4
29.2N   88.2W              84     260/ 14/ 16 1015.1R   2/ 2
28.8N   86.0W                 85  290/ 10/ 12 1014.6R   3/ 6   2/ 6
PANAMA CITY BEAC                              1014.6
TOWER C                    82     330/  8/  9 1014.8S
28.5N   84.5W                     230/ 10/ 12 1015.2R

$$
FLZ011-016>038-118-127-128-134-139-239-021400-
NORTH FLORIDA

CITY           SKY/WX    TMP DP  RH WIND       PRES   REMARKS
MARIANNA       MOSUNNY   74  69  85 W6        29.95S
TALLAHASSEE    MOSUNNY   78  70  76 NW9       29.96R
LIVE OAK       SUNNY     77  77 100 W5        29.95R
CROSS CITY     MOSUNNY   82  77  84 W7        29.96R
LAKE CITY      FAIR      77  73  88 W6        29.95R
GAINESVILLE    MOSUNNY   82  75  79 W10       29.97R
WILLISTON      FAIR     N/A N/A N/A W6        29.96S
PALATKA        FAIR      77  72  83 SW9       29.95S
MAYPORT NAS    MOSUNNY   82  75  79 W8        29.93R
JACKSONVILLE   MOSUNNY   80  75  84 W9        29.93R
JAX NAS        MOSUNNY   81  73  76 W12       29.94R
JAX CECIL      SUNNY     82  75  78 SW8       29.94R
FERNANDINA BEA PTSUNNY   80  79  96 W12       29.93R
ST AUGUSTINE   SUNNY     82  75  79 SW9       29.94S
PALM COAST     SUNNY     79  75  89 SW6       29.95R

STATION/POSITION SKY/WX   TEMP    WIND        PRES    WAVE   SWELL
                          AIR SEA DIR/SP/G            HT/PER HT/PER
                          (F)     (DEG/KT/KT) (MB)    (FT/S) (FT/S)
SHELL POINT      NOT AVBL
KEATON BEACH               82     320/  4/  6 1014.6R
CEDAR KEY                  85     270/  9/ 13 1014.5R
FERNANDINA                                    1013.2R
30.7N   81.3W                 82                N/A     2/10
MAYPORT                                       1013.5R
31.4N   80.9W              79 81  270/ 16/ 19 1012.3R   3/ 4   2/ 9
ST AUGUSTINE               82 81  230/  6/ 10 1014.2R

$$
FLZ040-043>046-052-053-057-058-063-144-021400-
INTERIOR CENTRAL FLORIDA

CITY           SKY/WX    TMP DP  RH WIND       PRES   REMARKS
OCALA          MOSUNNY   82  77  84 SW7       29.97R
LEESBURG       SUNNY     82  76  81 SW6       29.98R
SANFORD        SUNNY     83  75  77 SW5       29.96S
ORLANDO EXEC   SUNNY     83  75  77 W5        29.98R
ORLANDO INTL   MOSUNNY   83  75  77 W6        29.97R
KISSIMMEE      SUNNY     83  77  82 W7        29.99R
WINTER HAVEN   SUNNY     83  75  77 SW7       29.99R
LAKELAND       SUNNY     82  75  78 CALM      29.99R
BARTOW         MOSUNNY   82  77  83 W5        29.98R
SEBRING        FAIR      84  76  77 W5        29.99R
OKEECHOBEE     MOSUNNY   81  75  83 CALM      29.98R

$$
FLZ041-047-054-059-064-141-147-021400-
EAST CENTRAL FLORIDA

CITY           SKY/WX    TMP DP  RH WIND       PRES   REMARKS
ORMOND BEACH   SUNNY     81  72  74 SW6       29.95S
DAYTONA BEACH  MOSUNNY   80  78  94 SW8       29.96R
DELAND         SUNNY     82  75  80 SW9       29.97R
NEW SMYRNA BEA SUNNY     82  75  78 MISG      29.97R
JFK SPACE CTR  SUNNY     82  75  78 W7        29.96R
TITUSVILLE     SUNNY     86  75  70 W7        29.97R HX  95
CAPE CANAVERAL SUNNY     84  75  74 W7        29.95R
PATRICK AFB    SUNNY     83  75  75 SW6       29.97R
MELBOURNE      MOSUNNY   83  77  82 W8        29.97R
VERO BEACH       N/A    N/A N/A N/A MISG      29.97S
FT PIERCE      MOSUNNY   83  78  85 W6        29.97S
STUART         SUNNY     82  73  74 SW5       29.99R

STATION/POSITION SKY/WX   TEMP    WIND        PRES    WAVE   SWELL
                          AIR SEA DIR/SP/G            HT/PER HT/PER
                          (F)     (DEG/KT/KT) (MB)    (FT/S) (FT/S)
28.5N   80.2W              81 84  240/ 10/ 12 1014.4R   2/10   2/10
28.9N   78.5W              83 83  280/ 16/ 17 1014.8R   4/ 9   2/ 9
TRIDENT PIER                                  1015.5R
28.4N   80.5W                 83                N/A     1/10
27.5N   80.2W                 83                N/A     1/10

$$
FLZ050-056-061-142-242-148-248-149-249-151-251-155-255-
160-260-021400-
WEST CENTRAL FLORIDA

CITY           SKY/WX    TMP DP  RH WIND       PRES   REMARKS
CRYSTAL RIVER  FAIR      81  77  89 CALM      29.96S
INVERNESS      FAIR      81  81 100 CALM      29.98R
BROOKSVILLE    MOSUNNY   82  76  81 SW3       29.98R
CLEARWATER AIR FAIR      86  73  66 W7        29.98R
ST PETE CLEARW MOSUNNY   88  76  67 W12       29.97R HX  99
TAMPA INTL     PTSUNNY   87  72  60 W9        29.98R
TAMPA EXEC     SUNNY     84  77  79 W3        29.99R
PLANT CITY     SUNNY     86  81  84 W6        30.01R HX 102
MACDILL AFB    LGT RAIN  86  75  70 SW7       29.98R HX  95
PETER O KNIGHT MOSUNNY   88  79  74 W6        29.98R HX 102
ST PETERSBURG  PTSUNNY   82  74  76 NW6       29.97R
SARASOTA       MOSUNNY   87  75  67 W8        29.96R HX  96
VENICE         PTSUNNY   86  75  70 W8        29.99R HX  95

STATION/POSITION SKY/WX   TEMP    WIND        PRES    WAVE   SWELL
                          AIR SEA DIR/SP/G            HT/PER HT/PER
                          (F)     (DEG/KT/KT) (MB)    (FT/S) (FT/S)
27.3N   84.3W                 86                N/A     1/ 4
CLEARWATER BEACH                              1015.3
MIDDLE TAMPA BAY                              1015.0
VENICE                     86 89  260/  8/  9 1015.3R

$$
FLZ066-069-070-075>078-162-262-165-265-021400-
SOUTHWEST FLORIDA AND KEYS

CITY           SKY/WX    TMP DP  RH WIND       PRES   REMARKS
PUNTA GORDA    MOSUNNY   85  76  74 CALM      30.00R
FT MYERS       MOSUNNY   84  76  76 SE3       29.98R
SOUTHWEST INTL MOSUNNY   83  76  79 CALM      29.99R
NAPLES         MOSUNNY   84  78  82 CALM      29.99R HX  95
MARCO ISLAND   SUNNY     85  75  72 E5        30.01R
IMMOKALEE      FAIR      86  75  70 CALM      29.99R HX  95
MARATHON       SUNNY     87  76  69 SE5       29.98R HX  97
KEY WEST NAS   MOSUNNY   87  76  69 SE8       29.99R HX  97
KEY WEST INTL  MOSUNNY   87  75  67 SE7       29.99R HX  96

STATION/POSITION SKY/WX   TEMP    WIND        PRES    WAVE   SWELL
                          AIR SEA DIR/SP/G            HT/PER HT/PER
                          (F)     (DEG/KT/KT) (MB)    (FT/S) (FT/S)
NAPLES                                        1016.2
26.0N   85.6W                 87   CALM  /  2 1016.2R   1/ 6   2/ 6
DRY TORTUGAS     NOT AVBL
SAND KEY                          100/  7/  9   N/A
SOMBRERO KEY                      110/  6/  8   N/A
LONG KEY                          110/  6/  9 1015.0R

$$
FLZ067-068-071>074-168-172>174-021400-
SOUTHEAST FLORIDA

CITY           SKY/WX    TMP DP  RH WIND       PRES   REMARKS
W PALM BEACH   MOSUNNY   85  75  72 W7        30.00R
BOCA RATON     SUNNY     86  75  70 W6        29.99R HX  95
FT LAUDER-EXEC MOSUNNY   84  77  79 VRB3      29.99R
FT LAUDERDALE  MOSUNNY   85  76  74 VRB5      29.99R
POMPANO BEACH  MOSUNNY   83  75  77 NW6       29.99R
PEMBROKE PINES SUNNY     84  76  76 SW5       30.01R
OPA LOCKA      SUNNY     84  74  71 CALM      30.00R
MIAMI          MOSUNNY   87  75  67 CALM      30.00R HX  96
WEST KENDALL   SUNNY     86  76  71 VRB3      30.00R HX  96
HOMESTEAD      SUNNY     85  75  72 CALM      29.99R

STATION/POSITION SKY/WX   TEMP    WIND        PRES    WAVE   SWELL
                          AIR SEA DIR/SP/G            HT/PER HT/PER
                          (F)     (DEG/KT/KT) (MB)    (FT/S) (FT/S)
VIRGINIA KEY                                  1016.0
LAKE WORTH                                    1014.7R
FOWEY ROCKS                87 86  170/  6/  6 1016.1R

$$





USA.gov is the U.S. government's official web portal to all federal, state and local government web resources and services.